Regional Weather Roundup
Issued by NWS Sterling, VA

Home | Current Version | Previous Version | Graphics & Text | Print | Product List | Glossary On
Versions: 1 2 3 4 5 6 7 8 9 10 11 12 13 14 15 16 17 18 19 20 21 22 23 24 25 26 27 28 29 30 31 32 33 34 35 36 37 38 39 40 41 42 43 44 45 46 47 48 49
000
ASUS41 KLWX 230711
RWRLWX

REGIONAL WEATHER ROUNDUP
NATIONAL WEATHER SERVICE BALTIMORE MD/WASHINGTON DC
300 AM EDT SUN APR 23 2017

Note: "FAIR" indicates few or no clouds below 12,000 feet
with no significant weather and/or obstructions to visibility.
 TC=TEMPERATURE CELSIUS

 * =Non NWS site. Station does not report precipitation (e.g. rain,
    snow, etc.), thunder, or fog.

DCZ001-MDZ009-015-VAZ040>042-051-053>054-230800-
WASHINGTON METRO

CITY           SKY/WX    TMP DP  RH WIND       PRES   REMARKS
WASHINGTON NAT CLOUDY    53  46  77 N12       30.05R
DULLES         CLOUDY    50  46  86 N6        30.05S
ANDREWS AFB    MOCLDY    48  46  94 N5        30.04R
FT BELVOIR     PTCLDY    48  46  93 CALM      30.05R
QUANTICO       CLOUDY    51  49  92 NW5       30.07R
COLLEGE PARK*  CLOUDY    49  46  88 CALM      30.05S
LEESBURG*      CLOUDY    50  48  93 NE6       30.07R
MANASSAS*        N/A     49  47  93 N3        30.07R

$$

MDZ006>007-011-014-230800-
BALTIMORE METRO

CITY           SKY/WX    TMP DP  RH WIND       PRES   REMARKS
BWI AIRPORT    CLOUDY    49  46  90 N6        30.05S
MD SCIENCE CTR   N/A     52  40  63 MISG      30.06S
MARTIN STATE   CLOUDY    50  45  81 N3        30.07S
ANNAPOLIS      MOCLDY    54  44  69 NE8       30.03F
FORT MEADE*    CLOUDY    46  43  87 N6        30.07S

$$

MDZ012-015-019>023-230800-
MARYLAND EASTERN SHORE

CITY           SKY/WX    TMP DP  RH WIND       PRES   REMARKS
OCEAN CITY     CLOUDY    52  49  89 N6        30.01S
SALISBURY      CLOUDY    52  52 100 N6        30.01S FOG
BAY BRIDGE AP* CLOUDY    50  43  76 NE8       30.03F
CAMBRIDGE*     CLEAR     52  46  82 NE6G14    30.03R
EASTON*        CLOUDY    50  43  77 NE7       30.07S

$$

MDZ017>025-230800-
SOUTHERN MARYLAND

CITY           SKY/WX    TMP DP  RH WIND       PRES   REMARKS
PATUXENT RIVER CLOUDY    54  48  80 NE12      30.03S
ST INIGOES     CLOUDY    54  48  80 VRB3      30.03R
LEONARDTOWN*   CLOUDY    52  48  87 CALM      30.05R

$$

MDZ003>005-230800-
NORTH CENTRAL MARYLAND

CITY           SKY/WX    TMP DP  RH WIND       PRES   REMARKS
FREDERICK*     CLOUDY    46  46 100 CALM      30.10R
HAGERSTOWN APT CLOUDY    46  39  76 N8        30.07S
WESTMINSTER*   CLOUDY    45  45 100 CALM      30.05S

$$

MDZ501>502-230800-
WESTERN MARYLAND

CITY           SKY/WX    TMP DP  RH WIND       PRES   REMARKS
OAKLAND*       CLEAR     37  32  81 CALM      30.03S
CUMBERLAND*    CLOUDY    43  43 100 CALM      30.11R VSB 3/4

$$

VAZ025>031-230800-
SHENANDOAH VALLEY

CITY           SKY/WX    TMP DP  RH WIND       PRES   REMARKS
WINCHESTER*    CLOUDY    43  43 100 CALM      30.06S FOG
FRONT ROYAL*   CLOUDY    45  45 100 CALM      30.05S
LURAY*         FOG       46  46 100 CALM      30.04F VSB 1/2
NEW MARKET*    CLOUDY    45  44  96 CALM      30.04F
STAUNTON*      CLOUDY    47  46  96 CALM      30.06F
WAYNESBORO*    CLOUDY    46  46 100 CALM      30.05F

$$

WVZ021-048>050-054>055-230800-
EASTERN WEST VIRGINIA PANHANDLE

CITY           SKY/WX    TMP DP  RH WIND       PRES   REMARKS
MARTINSBURG    FOG       46  45  96 N5        30.07R VSB 1/4
PETERSBURG*    FOG       47  46  99 CALM      30.06F VSB 1

$$

VAZ036>039-050-230800-
CENTRAL FOOTHILLS

CITY           SKY/WX    TMP DP  RH WIND       PRES   REMARKS
CHARLOTTESVILL CLOUDY    51  50  96 CALM      30.04F
CULPEPER*      CLOUDY    49  48  95 CALM      30.05F
ORANGE*        LGT RAIN  48  45  87 CALM      30.04F
GORDONSVILLE*  CLOUDY    49  47  95 CALM      30.04F
WARRENTON*     CLOUDY    49  46  90 CALM      30.06R

$$

VAZ055>057-230800-
NORTH AND CENTRAL PIEDMONT

CITY           SKY/WX    TMP DP  RH WIND       PRES   REMARKS
FREDERICKSBRG* PTCLDY    50  50 100 N3        30.05S
STAFFORD*      CLOUDY    47  47 100 CALM      30.10S

$$

NCZ024-NYZ072-PAZ021-071-VAZ022-071-230800-
OTHER REGIONAL OBSERVATIONS

CITY           SKY/WX    TMP DP  RH WIND       PRES   REMARKS
NEW YORK CITY  CLEAR     48  37  65 NW5       30.06R
PHILADELPHIA   CLOUDY    46  37  71 N8        30.05F
PITTSBURGH     CLEAR     43  32  65 NE7       30.08S
ROANOKE        CLOUDY    50  48  93 E9        30.04S
RICHMOND       LGT RAIN  51  51 100 NE9       30.01F
RALEIGH        CLOUDY    55  53  93 NE9       29.98F

$$

ANZ530>537-230800-
MARINE OBSERVATIONS

STATION/POSITION TIME  TEMP    WIND        PRES
                       AIR SEA DIR/SP/G
                 (UTC) (F)     (DEG/KT/KT) (MB)
THOMAS PT LIGHT  0700   53 59   40/ 15/ 17   N/A
BALT KEY BRIDGE  0648   51      20/ 10/ 12 1017.5F
COVE POINT       0648   55      50/ 15/ 19 1017.6R
LEWISETTA        0648   55 63   40/  8/ 11 1016.1F
SOLOMONS ISLAND  0648   54 62  290/  3/  5   N/A
PINEY POINT      0648           10/  8/  9   N/A

$$




USA.gov is the U.S. government's official web portal to all federal, state and local government web resources and services.